Torna al catalogo

THOR AGENA D R/B

AttivoPO
NORAD 733·ROCKET BODY·🇺🇸 United States

Lanciato Jan 19, 1964 da Vandenberg Space Force Base

Loading…

Prossimi Passaggi (prossime 24 ore)

TLE

AggiornatoSource: Space-Track

Epoca: Sep 14, 2026, 12:47 UTC

1 00733U 64002A   26257.53293311  .00000101  00000-0  53142-4 0  9995
2 00733  99.1137 281.0786 0033761  69.3929 291.0870 14.34094379265368

Traccia THOR AGENA D R/B in tempo reale con AllMySat

Download on the App Store